Time,TemperatureF,DewpointF,PressureIn,WindDirection,WindDirectionDegrees,WindSpeedMPH,WindSpeedGustMPH,Humidity,HourlyPrecipIn,Conditions,Clouds,dailyrainin,SoftwareType,DateUTC
2013-11-21 00:01:00,54.0,44.1,29.86,SSE,157,1.0,5.0,69,0.00,CLR,,0.00,WeatherDisplay:10.37,2013-11-21 06:01:00,
2013-11-21 00:05:00,53.9,44.0,29.87,SSE,152,2.0,5.0,69,0.00,CLR,,0.00,WeatherDisplay:10.37,2013-11-21 06:05:00,
2013-11-21 00:15:00,53.9,44.3,29.87,SSE,159,0.0,2.0,70,0.00,CLR,,0.00,WeatherDisplay:10.37,2013-11-21 06:15:00,
2013-11-21 00:21:00,53.7,44.1,29.87,SSE,159,0.0,2.0,70,0.00,CLR,,0.00,WeatherDisplay:10.37,2013-11-21 06:21:00,
2013-11-21 00:31:00,53.6,44.4,29.87,SSE,159,0.0,0.0,71,0.00,CLR,,0.00,WeatherDisplay:10.37,2013-11-21 06:31:00,
2013-11-21 00:35:00,53.6,44.4,29.88,SSE,159,0.0,0.0,71,0.00,CLR,,0.00,WeatherDisplay:10.37,2013-11-21 06:35:00,
2013-11-21 00:41:00,53.4,44.2,29.88,SSE,159,0.0,0.0,71,0.00,CLR,,0.00,WeatherDisplay:10.37,2013-11-21 06:41:00,
2013-11-21 00:45:00,53.4,44.6,29.88,SSE,159,0.0,0.0,72,0.00,CLR,,0.00,WeatherDisplay:10.37,2013-11-21 06:45:00,
2013-11-21 00:50:00,53.3,44.9,29.88,SSE,159,0.0,2.0,73,0.00,CLR,,0.00,WeatherDisplay:10.37,2013-11-21 06:50:00,
2013-11-21 00:55:00,53.1,45.4,29.88,SSE,159,0.0,5.0,75,0.00,CLR,,0.00,WeatherDisplay:10.37,2013-11-21 06:55:00,
2013-11-21 01:00:00,52.9,45.5,29.88,SSE,159,0.0,0.0,76,0.00,CLR,,0.01,WeatherDisplay:10.37,2013-11-21 07:00:00,
2013-11-21 01:05:00,52.6,45.9,29.88,SSE,156,0.0,5.0,78,0.01,RA,,0.01,WeatherDisplay:10.37,2013-11-21 07:05:00,
2013-11-21 01:11:00,52.3,46.0,29.88,SSE,154,2.0,4.0,79,0.00,RA,,0.01,WeatherDisplay:10.37,2013-11-21 07:11:00,
2013-11-21 01:20:00,51.7,46.1,29.88,SSE,148,0.0,2.0,81,0.00,RA,,0.02,WeatherDisplay:10.37,2013-11-21 07:20:00,
2013-11-21 01:26:00,51.5,46.2,29.88,SE,145,0.0,0.0,82,0.01,RA,,0.03,WeatherDisplay:10.37,2013-11-21 07:26:00,
2013-11-21 01:31:00,51.3,46.3,29.87,SE,142,0.0,0.0,83,0.00,RA,,0.03,WeatherDisplay:10.37,2013-11-21 07:31:00,
2013-11-21 01:35:00,51.1,46.1,29.88,SE,142,0.0,0.0,83,0.00,RA,,0.03,WeatherDisplay:10.37,2013-11-21 07:35:00,
2013-11-21 01:41:00,51.1,46.4,29.87,SE,143,1.0,8.0,84,0.00,CLR,,0.03,WeatherDisplay:10.37,2013-11-21 07:41:00,
2013-11-21 01:46:00,50.9,46.6,29.86,SE,143,1.0,5.0,85,0.01,RA,,0.04,WeatherDisplay:10.37,2013-11-21 07:46:00,
2013-11-21 01:50:00,51.1,46.7,29.86,SE,144,1.0,4.0,85,0.00,RA,,0.04,WeatherDisplay:10.37,2013-11-21 07:50:00,
2013-11-21 01:55:00,51.2,47.2,29.87,SE,145,0.0,0.0,86,0.00,RA,,0.04,WeatherDisplay:10.37,2013-11-21 07:55:00,
2013-11-21 02:01:00,51.3,47.6,29.87,SSE,149,1.0,6.0,87,0.00,CLR,,0.04,WeatherDisplay:10.37,2013-11-21 08:01:00,
2013-11-21 02:06:00,51.5,47.8,29.86,SSE,153,1.0,8.0,87,0.00,CLR,,0.04,WeatherDisplay:10.37,2013-11-21 08:06:00,
2013-11-21 02:11:00,51.8,48.1,29.88,SSE,165,3.0,6.0,87,0.00,CLR,,0.04,WeatherDisplay:10.37,2013-11-21 08:11:00,
2013-11-21 02:16:00,52.1,48.6,29.87,South,172,3.0,8.0,88,0.00,CLR,,0.04,WeatherDisplay:10.37,2013-11-21 08:16:00,
2013-11-21 02:21:00,52.6,49.2,29.88,South,186,6.0,12.0,88,0.02,RA,,0.06,WeatherDisplay:10.37,2013-11-21 08:21:00,
2013-11-21 02:31:00,54.5,51.6,29.89,South,188,2.0,15.0,90,0.03,RA,,0.11,WeatherDisplay:10.37,2013-11-21 08:31:00,
2013-11-21 02:36:00,54.6,51.7,29.90,South,191,2.0,9.0,90,0.01,RA,,0.12,WeatherDisplay:10.37,2013-11-21 08:36:00,
2013-11-21 02:41:00,54.6,51.7,29.89,SSW,202,1.0,12.0,90,0.02,RA,,0.14,WeatherDisplay:10.37,2013-11-21 08:41:00,
2013-11-21 02:51:00,54.5,51.6,29.90,SSW,201,0.0,4.0,90,0.01,RA,,0.17,WeatherDisplay:10.37,2013-11-21 08:51:00,
2013-11-21 02:56:00,54.3,51.4,29.91,SSW,199,5.0,8.0,90,0.01,RA,,0.20,WeatherDisplay:10.37,2013-11-21 08:56:00,
2013-11-21 03:06:00,53.9,51.3,29.91,SSE,165,2.0,4.0,91,0.02,RA,,0.27,WeatherDisplay:10.37,2013-11-21 09:06:00,
2013-11-21 03:11:00,53.9,51.3,29.91,South,170,0.0,5.0,91,0.02,RA,,0.28,WeatherDisplay:10.37,2013-11-21 09:11:00,
2013-11-21 03:21:00,53.7,51.1,29.91,SSW,193,0.0,0.0,91,0.02,RA,,0.32,WeatherDisplay:10.37,2013-11-21 09:21:00,
2013-11-21 03:25:00,53.6,51.0,29.90,SSW,193,0.0,0.0,91,0.01,RA,,0.34,WeatherDisplay:10.37,2013-11-21 09:25:00,
2013-11-21 03:31:00,53.4,50.8,29.89,SSW,193,0.0,0.0,91,0.03,RA,,0.36,WeatherDisplay:10.37,2013-11-21 09:31:00,
2013-11-21 03:35:00,53.3,51.0,29.88,SSW,193,0.0,0.0,92,0.01,RA,,0.38,WeatherDisplay:10.37,2013-11-21 09:35:00,
2013-11-21 03:40:00,53.3,51.0,29.88,SSW,193,0.0,0.0,92,0.01,RA,,0.39,WeatherDisplay:10.37,2013-11-21 09:40:00,
2013-11-21 03:46:00,53.1,50.8,29.87,SSW,193,0.0,0.0,92,0.01,RA,,0.40,WeatherDisplay:10.37,2013-11-21 09:46:00,
2013-11-21 03:51:00,53.1,50.8,29.87,SSW,193,0.0,0.0,92,0.01,RA,,0.40,WeatherDisplay:10.37,2013-11-21 09:51:00,
2013-11-21 03:56:00,53.0,50.7,29.88,SSW,193,0.0,0.0,92,0.00,RA,,0.40,WeatherDisplay:10.37,2013-11-21 09:56:00,
2013-11-21 04:00:00,53.0,50.7,29.89,SSW,193,0.0,0.0,92,0.00,,,0.40,WeatherDisplay:10.37,2013-11-21 10:00:00,
2013-11-21 04:06:00,53.0,50.7,29.89,South,186,0.0,5.0,92,0.00,CLR,,0.41,WeatherDisplay:10.37,2013-11-21 10:06:00,
2013-11-21 04:16:00,52.9,50.6,29.88,SE,144,2.0,5.0,92,0.01,RA,,0.42,WeatherDisplay:10.37,2013-11-21 10:16:00,
2013-11-21 04:21:00,52.9,50.6,29.88,SE,136,0.0,8.0,92,0.01,RA,,0.43,WeatherDisplay:10.37,2013-11-21 10:21:00,
2013-11-21 04:26:00,52.7,50.7,29.87,SE,146,6.0,14.0,93,0.01,RA,,0.44,WeatherDisplay:10.37,2013-11-21 10:26:00,
2013-11-21 04:36:00,52.6,50.6,29.87,SSE,148,6.0,13.0,93,0.00,RA,,0.44,WeatherDisplay:10.37,2013-11-21 10:36:00,
2013-11-21 04:41:00,52.4,50.4,29.87,SSE,147,3.0,9.0,93,0.00,CLR,,0.44,WeatherDisplay:10.37,2013-11-21 10:41:00,
2013-11-21 04:51:00,52.1,50.1,29.86,ESE,106,0.0,5.0,93,0.00,CLR,,0.44,WeatherDisplay:10.37,2013-11-21 10:51:00,
2013-11-21 04:55:00,52.0,50.0,29.86,East,90,0.0,4.0,93,0.00,CLR,,0.44,WeatherDisplay:10.37,2013-11-21 10:55:00,
2013-11-21 05:01:00,51.8,49.9,29.87,ESE,122,1.0,6.0,93,0.00,CLR,,0.44,WeatherDisplay:10.37,2013-11-21 11:01:00,
2013-11-21 05:06:00,51.8,49.8,29.88,SSE,147,1.0,5.0,93,0.00,CLR,,0.44,WeatherDisplay:10.37,2013-11-21 11:06:00,
2013-11-21 05:11:00,51.8,49.8,29.88,SSE,148,0.0,9.0,93,0.00,CLR,,0.44,WeatherDisplay:10.37,2013-11-21 11:11:00,
2013-11-21 05:21:00,51.7,49.7,29.88,SSE,158,0.0,4.0,93,0.01,RA,,0.45,WeatherDisplay:10.37,2013-11-21 11:21:00,
2013-11-21 05:26:00,51.5,49.5,29.88,SSE,155,2.0,12.0,93,0.00,RA,,0.45,WeatherDisplay:10.37,2013-11-21 11:26:00,
2013-11-21 05:30:00,51.5,49.5,29.88,SE,144,0.0,5.0,93,0.00,,,0.45,WeatherDisplay:10.37,2013-11-21 11:30:00,
2013-11-21 05:35:00,51.5,49.5,29.88,SE,146,0.0,6.0,93,0.00,CLR,,0.45,WeatherDisplay:10.37,2013-11-21 11:35:00,
2013-11-21 05:41:00,51.4,49.4,29.88,SE,126,0.0,0.0,93,0.00,CLR,,0.45,WeatherDisplay:10.37,2013-11-21 11:41:00,
2013-11-21 05:46:00,51.4,49.4,29.89,ESE,116,0.0,4.0,93,0.00,CLR,,0.45,WeatherDisplay:10.37,2013-11-21 11:46:00,
2013-11-21 05:51:00,51.4,49.4,29.89,ESE,116,0.0,0.0,93,0.00,CLR,,0.45,WeatherDisplay:10.37,2013-11-21 11:51:00,
2013-11-21 06:01:00,51.4,49.4,29.91,ESE,121,1.0,5.0,93,0.00,CLR,,0.45,WeatherDisplay:10.37,2013-11-21 12:01:00,
2013-11-21 06:06:00,51.4,49.4,29.91,SE,127,1.0,9.0,93,0.00,CLR,,0.45,WeatherDisplay:10.37,2013-11-21 12:06:00,
2013-11-21 06:11:00,51.4,49.4,29.90,SE,131,0.0,0.0,93,0.00,CLR,,0.45,WeatherDisplay:10.37,2013-11-21 12:11:00,
2013-11-21 06:16:00,51.4,49.4,29.90,SE,134,1.0,5.0,93,0.00,CLR,,0.45,WeatherDisplay:10.37,2013-11-21 12:16:00,
2013-11-21 06:21:00,51.4,49.4,29.90,SE,135,2.0,5.0,93,0.01,RA,,0.46,WeatherDisplay:10.37,2013-11-21 12:21:00,
2013-11-21 06:25:00,51.4,49.4,29.90,SE,136,0.0,5.0,93,0.00,RA,,0.46,WeatherDisplay:10.37,2013-11-21 12:25:00,
2013-11-21 06:30:00,51.4,49.7,29.90,SE,136,0.0,0.0,94,0.00,,,0.46,WeatherDisplay:10.37,2013-11-21 12:30:00,
2013-11-21 06:35:00,51.4,49.7,29.91,SE,136,0.0,0.0,94,0.00,CLR,,0.46,WeatherDisplay:10.37,2013-11-21 12:35:00,
2013-11-21 06:40:00,51.4,49.7,29.91,SE,136,0.0,0.0,94,0.00,CLR,,0.46,WeatherDisplay:10.37,2013-11-21 12:40:00,
2013-11-21 06:45:00,51.4,49.7,29.91,SE,136,0.0,0.0,94,0.00,CLR,,0.46,WeatherDisplay:10.37,2013-11-21 12:45:00,
2013-11-21 06:51:00,51.4,49.7,29.92,ESE,122,0.0,6.0,94,0.00,CLR,,0.46,WeatherDisplay:10.37,2013-11-21 12:51:00,
2013-11-21 06:56:00,51.5,49.8,29.92,NNE,23,7.0,14.0,94,0.00,CLR,,0.46,WeatherDisplay:10.37,2013-11-21 12:56:00,
2013-11-21 07:01:00,51.5,49.8,29.93,NNE,27,3.0,13.0,94,0.00,CLR,,0.46,WeatherDisplay:10.37,2013-11-21 13:01:00,
2013-11-21 07:06:00,51.5,49.9,29.93,NNE,27,8.0,18.0,94,0.00,CLR,,0.46,WeatherDisplay:10.37,2013-11-21 13:06:00,
2013-11-21 07:11:00,51.7,50.0,29.93,NNE,15,6.0,9.0,94,0.00,CLR,,0.46,WeatherDisplay:10.37,2013-11-21 13:11:00,
2013-11-21 07:16:00,51.8,50.1,29.94,NNE,14,3.0,13.0,94,0.00,CLR,,0.46,WeatherDisplay:10.37,2013-11-21 13:16:00,
2013-11-21 07:21:00,51.8,50.1,29.94,NNE,15,0.0,8.0,94,0.00,CLR,,0.46,WeatherDisplay:10.37,2013-11-21 13:21:00,
2013-11-21 07:25:00,51.8,50.1,29.95,NNE,16,0.0,0.0,94,0.00,CLR,,0.46,WeatherDisplay:10.37,2013-11-21 13:25:00,
2013-11-21 07:31:00,51.8,50.1,29.95,NNE,16,0.0,0.0,94,0.00,CLR,,0.46,WeatherDisplay:10.37,2013-11-21 13:31:00,
2013-11-21 07:36:00,51.8,50.1,29.94,NNE,16,0.0,0.0,94,0.00,CLR,,0.46,WeatherDisplay:10.37,2013-11-21 13:36:00,
2013-11-21 07:41:00,52.0,50.3,29.96,NNE,16,0.0,0.0,94,0.01,RA,,0.47,WeatherDisplay:10.37,2013-11-21 13:41:00,
2013-11-21 07:46:00,52.0,50.3,29.96,NNE,16,0.0,0.0,94,0.01,RA,,0.48,WeatherDisplay:10.37,2013-11-21 13:46:00,
2013-11-21 07:51:00,52.0,50.3,29.97,NNE,16,0.0,0.0,94,0.02,RA,,0.50,WeatherDisplay:10.37,2013-11-21 13:51:00,
2013-11-21 07:56:00,52.0,50.3,29.96,NNE,16,0.0,0.0,94,0.02,RA,,0.52,WeatherDisplay:10.37,2013-11-21 13:56:00,
2013-11-21 08:05:00,52.1,50.4,29.97,NNE,16,0.0,0.0,94,0.01,RA,,0.54,WeatherDisplay:10.37,2013-11-21 14:05:00,
2013-11-21 08:11:00,52.1,50.4,29.96,NNE,22,9.0,19.0,94,0.00,RA,,0.55,WeatherDisplay:10.37,2013-11-21 14:11:00,
2013-11-21 08:16:00,50.3,47.8,29.98,NNE,14,10.0,24.0,91,0.01,RA,,0.55,WeatherDisplay:10.37,2013-11-21 14:16:00,
2013-11-21 08:26:00,46.3,44.1,30.01,NNE,16,17.0,30.0,92,0.00,RA,,0.56,WeatherDisplay:10.37,2013-11-21 14:26:00,
2013-11-21 08:36:00,44.3,42.4,30.02,NNE,13,6.0,21.0,93,0.00,CLR,,0.56,WeatherDisplay:10.37,2013-11-21 14:36:00,
2013-11-21 08:41:00,44.0,42.1,30.02,NNE,15,10.0,23.0,93,0.00,CLR,,0.56,WeatherDisplay:10.37,2013-11-21 14:41:00,
2013-11-21 08:46:00,43.6,41.7,30.02,NNE,30,14.0,19.0,93,0.00,CLR,,0.56,WeatherDisplay:10.37,2013-11-21 14:46:00,
2013-11-21 08:56:00,42.9,41.0,30.03,NNE,26,15.0,30.0,93,0.00,CLR,,0.56,WeatherDisplay:10.37,2013-11-21 14:56:00,
2013-11-21 09:06:00,41.4,39.5,30.05,NNE,15,12.0,26.0,93,0.00,CLR,,0.56,WeatherDisplay:10.37,2013-11-21 15:06:00,
2013-11-21 09:16:00,40.9,39.0,30.05,North,3,18.0,24.0,93,0.00,CLR,,0.56,WeatherDisplay:10.37,2013-11-21 15:16:00,
2013-11-21 09:21:00,40.7,38.8,30.04,North,11,8.0,28.0,93,0.00,CLR,,0.56,WeatherDisplay:10.37,2013-11-21 15:21:00,
2013-11-21 09:26:00,40.5,38.6,30.05,North,10,16.0,26.0,93,0.00,CLR,,0.56,WeatherDisplay:10.37,2013-11-21 15:26:00,
2013-11-21 09:36:00,40.1,38.2,30.05,North,9,3.0,19.0,93,0.00,CLR,,0.56,WeatherDisplay:10.37,2013-11-21 15:36:00,
2013-11-21 09:41:00,40.0,38.1,30.06,NNE,19,12.0,24.0,93,0.00,CLR,,0.56,WeatherDisplay:10.37,2013-11-21 15:41:00,
2013-11-21 09:46:00,39.9,38.1,30.06,NNE,19,5.0,22.0,93,0.00,CLR,,0.56,WeatherDisplay:10.37,2013-11-21 15:46:00,
2013-11-21 09:51:00,39.8,38.0,30.06,NNE,14,15.0,28.0,93,0.00,CLR,,0.56,WeatherDisplay:10.37,2013-11-21 15:51:00,
2013-11-21 10:04:00,39.6,37.7,30.07,North,4,14.0,28.0,93,0.00,CLR,,0.56,WeatherDisplay:10.37,2013-11-21 16:04:00,
2013-11-21 10:12:00,39.1,37.2,30.08,NNE,16,16.0,26.0,93,0.00,CLR,,0.56,WeatherDisplay:10.37,2013-11-21 16:12:00,
2013-11-21 10:17:00,39.0,37.1,30.08,NNE,23,21.0,24.0,93,0.00,CLR,,0.56,WeatherDisplay:10.37,2013-11-21 16:17:00,
2013-11-21 10:26:00,38.6,36.5,30.09,North,8,21.0,30.0,92,0.00,RA,,0.57,WeatherDisplay:10.37,2013-11-21 16:26:00,
2013-11-21 10:31:00,38.4,36.6,30.09,NNE,18,9.0,24.0,93,0.00,RA,,0.57,WeatherDisplay:10.37,2013-11-21 16:31:00,
2013-11-21 10:41:00,38.3,36.2,30.09,North,5,13.0,19.0,92,0.00,CLR,,0.57,WeatherDisplay:10.37,2013-11-21 16:41:00,
2013-11-21 10:51:00,38.1,36.0,30.09,North,7,14.0,24.0,92,0.00,CLR,,0.57,WeatherDisplay:10.37,2013-11-21 16:51:00,
2013-11-21 10:56:00,38.0,35.9,30.10,North,3,20.0,24.0,92,0.00,CLR,,0.57,WeatherDisplay:10.37,2013-11-21 16:56:00,
2013-11-21 11:01:00,37.9,35.7,30.10,North,357,21.0,29.0,92,0.00,CLR,,0.57,WeatherDisplay:10.37,2013-11-21 17:01:00,
2013-11-21 11:11:00,37.7,35.6,30.11,North,2,18.0,34.0,92,0.00,CLR,,0.57,WeatherDisplay:10.37,2013-11-21 17:11:00,
2013-11-21 11:21:00,37.7,35.6,30.10,NNE,23,12.0,25.0,92,0.00,CLR,,0.57,WeatherDisplay:10.37,2013-11-21 17:21:00,
2013-11-21 11:31:00,37.6,35.5,30.11,NNE,16,15.0,24.0,92,0.00,CLR,,0.57,WeatherDisplay:10.37,2013-11-21 17:31:00,
2013-11-21 11:41:00,37.4,35.3,30.11,North,7,18.0,26.0,92,0.00,CLR,,0.57,WeatherDisplay:10.37,2013-11-21 17:41:00,
2013-11-21 11:51:00,37.3,34.9,30.11,North,6,22.0,30.0,91,0.00,CLR,,0.57,WeatherDisplay:10.37,2013-11-21 17:51:00,
2013-11-21 11:56:00,37.0,34.6,30.11,North,358,10.0,21.0,91,0.00,CLR,,0.57,WeatherDisplay:10.37,2013-11-21 17:56:00,
2013-11-21 12:01:00,37.0,34.6,30.10,NNE,14,16.0,23.0,91,0.00,CLR,,0.57,WeatherDisplay:10.37,2013-11-21 18:01:00,
2013-11-21 12:11:00,36.8,34.4,30.10,North,355,23.0,28.0,91,0.00,CLR,,0.57,WeatherDisplay:10.37,2013-11-21 18:11:00,
2013-11-21 12:21:00,36.6,34.2,30.11,North,6,17.0,25.0,91,0.00,CLR,,0.57,WeatherDisplay:10.37,2013-11-21 18:21:00,
2013-11-21 12:31:00,36.4,34.0,30.11,North,360,17.0,23.0,91,0.00,CLR,,0.57,WeatherDisplay:10.37,2013-11-21 18:31:00,
2013-11-21 12:36:00,36.4,34.0,30.12,North,1,16.0,24.0,91,0.00,CLR,,0.57,WeatherDisplay:10.37,2013-11-21 18:36:00,
2013-11-21 12:41:00,36.3,33.9,30.12,North,9,16.0,25.0,91,0.00,CLR,,0.57,WeatherDisplay:10.37,2013-11-21 18:41:00,
2013-11-21 12:51:00,36.1,33.7,30.12,NNE,12,15.0,24.0,91,0.00,CLR,,0.57,WeatherDisplay:10.37,2013-11-21 18:51:00,
2013-11-21 12:56:00,36.1,33.7,30.12,North,11,18.0,28.0,91,0.00,CLR,,0.57,WeatherDisplay:10.37,2013-11-21 18:56:00,
2013-11-21 13:06:00,36.0,33.6,30.12,North,6,13.0,22.0,91,0.00,CLR,,0.57,WeatherDisplay:10.37,2013-11-21 19:06:00,
2013-11-21 13:11:00,35.8,33.4,30.12,North,10,17.0,25.0,91,0.00,CLR,,0.57,WeatherDisplay:10.37,2013-11-21 19:11:00,
2013-11-21 13:21:00,35.2,32.9,30.12,North,356,23.0,28.0,91,0.00,CLR,,0.57,WeatherDisplay:10.37,2013-11-21 19:21:00,
2013-11-21 13:26:00,35.0,32.6,30.12,NNE,12,20.0,29.0,91,0.00,CLR,,0.57,WeatherDisplay:10.37,2013-11-21 19:26:00,
2013-11-21 13:36:00,34.7,32.3,30.13,NNE,19,20.0,25.0,91,0.00,CLR,,0.57,WeatherDisplay:10.37,2013-11-21 19:36:00,
2013-11-21 13:41:00,34.7,32.3,30.14,NNE,16,23.0,26.0,91,0.00,CLR,,0.57,WeatherDisplay:10.37,2013-11-21 19:41:00,
2013-11-21 13:51:00,34.1,31.2,30.14,NNE,16,13.0,25.0,89,0.00,CLR,,0.57,WeatherDisplay:10.37,2013-11-21 19:51:00,
2013-11-21 13:56:00,33.9,31.6,30.14,North,10,18.0,30.0,91,0.00,CLR,,0.57,WeatherDisplay:10.37,2013-11-21 19:56:00,
2013-11-21 14:01:00,33.8,31.5,30.14,North,6,17.0,31.0,91,0.00,CLR,,0.57,WeatherDisplay:10.37,2013-11-21 20:01:00,
2013-11-21 14:06:00,33.6,31.3,30.14,North,10,18.0,29.0,91,0.00,CLR,,0.57,WeatherDisplay:10.37,2013-11-21 20:06:00,
2013-11-21 14:11:00,33.6,31.3,30.13,North,11,17.0,24.0,91,0.00,CLR,,0.57,WeatherDisplay:10.37,2013-11-21 20:11:00,
2013-11-21 14:16:00,33.5,31.2,30.14,North,357,14.0,27.0,91,0.00,CLR,,0.57,WeatherDisplay:10.37,2013-11-21 20:16:00,
2013-11-21 14:21:00,33.2,30.9,30.14,North,1,25.0,31.0,91,0.00,,,0.57,WeatherDisplay:10.37,2013-11-21 20:21:00,
2013-11-21 14:31:00,32.7,30.4,30.15,NNE,23,18.0,25.0,91,0.00,CLR,,0.57,WeatherDisplay:10.37,2013-11-21 20:31:00,
2013-11-21 14:41:00,32.3,30.0,30.15,NNE,12,20.0,26.0,91,0.00,CLR,,0.57,WeatherDisplay:10.37,2013-11-21 20:41:00,
2013-11-21 14:51:00,32.0,29.7,30.16,North,10,17.0,25.0,91,0.00,CLR,,0.57,WeatherDisplay:10.37,2013-11-21 20:51:00,
2013-11-21 15:01:00,32.0,29.7,30.17,NNE,12,16.0,31.0,91,0.00,CLR,,0.57,WeatherDisplay:10.37,2013-11-21 21:01:00,
2013-11-21 15:11:00,31.6,29.3,30.17,North,9,18.0,30.0,91,0.00,CLR,,0.57,WeatherDisplay:10.37,2013-11-21 21:11:00,
2013-11-21 15:16:00,31.6,29.3,30.18,NNE,15,16.0,30.0,91,0.00,CLR,,0.57,WeatherDisplay:10.37,2013-11-21 21:16:00,
2013-11-21 15:21:00,31.4,29.1,30.19,North,7,17.0,28.0,91,0.00,CLR,,0.57,WeatherDisplay:10.37,2013-11-21 21:21:00,
2013-11-21 15:26:00,31.4,29.1,30.19,North,356,20.0,29.0,91,0.00,CLR,,0.57,WeatherDisplay:10.37,2013-11-21 21:26:00,
2013-11-21 15:31:00,31.3,29.0,30.20,North,3,15.0,29.0,91,0.00,CLR,,0.57,WeatherDisplay:10.37,2013-11-21 21:31:00,
2013-11-21 15:36:00,31.3,29.0,30.20,North,11,13.0,25.0,91,0.00,CLR,,0.57,WeatherDisplay:10.37,2013-11-21 21:36:00,
2013-11-21 15:41:00,31.3,29.0,30.20,North,9,20.0,30.0,91,0.00,CLR,,0.57,WeatherDisplay:10.37,2013-11-21 21:41:00,
2013-11-21 15:46:00,31.3,29.0,30.21,North,8,14.0,23.0,91,0.00,CLR,,0.57,WeatherDisplay:10.37,2013-11-21 21:46:00,
2013-11-21 15:51:00,31.1,28.8,30.22,North,9,18.0,21.0,91,0.00,CLR,,0.57,WeatherDisplay:10.37,2013-11-21 21:51:00,
2013-11-21 16:01:00,30.8,28.5,30.22,NNE,14,14.0,23.0,91,0.00,CLR,,0.57,WeatherDisplay:10.37,2013-11-21 22:01:00,
2013-11-21 16:11:00,30.8,28.5,30.23,North,5,20.0,25.0,91,0.00,CLR,,0.57,WeatherDisplay:10.37,2013-11-21 22:11:00,
2013-11-21 16:16:00,30.7,28.4,30.24,North,5,17.0,26.0,91,0.00,CLR,,0.57,WeatherDisplay:10.37,2013-11-21 22:16:00,
2013-11-21 16:21:00,30.7,28.1,30.24,North,357,14.0,25.0,90,0.00,CLR,,0.57,WeatherDisplay:10.37,2013-11-21 22:21:00,
2013-11-21 16:26:00,30.7,28.1,30.24,North,4,15.0,23.0,90,0.00,CLR,,0.57,WeatherDisplay:10.37,2013-11-21 22:26:00,
2013-11-21 16:36:00,30.7,28.1,30.25,NNE,17,18.0,29.0,90,0.00,CLR,,0.57,WeatherDisplay:10.37,2013-11-21 22:36:00,
2013-11-21 16:41:00,30.8,28.2,30.26,NNE,13,20.0,29.0,90,0.00,CLR,,0.57,WeatherDisplay:10.37,2013-11-21 22:41:00,
2013-11-21 16:46:00,30.8,28.2,30.27,North,353,12.0,26.0,90,0.00,CLR,,0.57,WeatherDisplay:10.37,2013-11-21 22:46:00,
2013-11-21 16:51:00,31.0,28.4,30.27,NNW,344,12.0,25.0,90,0.00,CLR,,0.57,WeatherDisplay:10.37,2013-11-21 22:51:00,
2013-11-21 17:01:00,31.1,28.5,30.26,North,11,12.0,22.0,90,0.00,CLR,,0.57,WeatherDisplay:10.37,2013-11-21 23:01:00,
2013-11-21 17:11:00,31.0,28.4,30.28,North,3,18.0,28.0,90,0.00,CLR,,0.57,WeatherDisplay:10.37,2013-11-21 23:11:00,
2013-11-21 17:21:00,30.5,27.6,30.28,North,356,10.0,20.0,89,0.00,CLR,,0.57,WeatherDisplay:10.37,2013-11-21 23:21:00,
2013-11-21 17:26:00,30.5,27.6,30.29,North,1,14.0,38.0,89,0.00,CLR,,0.57,WeatherDisplay:10.37,2013-11-21 23:26:00,
2013-11-21 17:31:00,30.4,27.5,30.28,NNE,13,22.0,31.0,89,0.00,CLR,,0.57,WeatherDisplay:10.37,2013-11-21 23:31:00,
2013-11-21 17:41:00,30.1,27.0,30.29,North,11,20.0,26.0,88,0.00,CLR,,0.57,WeatherDisplay:10.37,2013-11-21 23:41:00,
2013-11-21 17:51:00,29.6,26.2,30.29,North,355,21.0,38.0,87,0.00,,,0.57,WeatherDisplay:10.37,2013-11-21 23:51:00,
2013-11-21 18:01:00,29.8,26.4,30.31,North,10,16.0,21.0,87,0.00,CLR,,0.57,WeatherDisplay:10.37,2013-11-22 00:01:00,
2013-11-21 18:11:00,29.8,26.1,30.31,North,6,17.0,31.0,86,0.00,CLR,,0.57,WeatherDisplay:10.37,2013-11-22 00:11:00,
2013-11-21 18:16:00,29.6,25.9,30.32,NNE,13,15.0,31.0,86,0.00,CLR,,0.57,WeatherDisplay:10.37,2013-11-22 00:16:00,
2013-11-21 18:21:00,29.6,25.9,30.32,North,359,15.0,29.0,86,0.00,CLR,,0.57,WeatherDisplay:10.37,2013-11-22 00:21:00,
2013-11-21 18:31:00,29.2,25.2,30.32,North,9,17.0,25.0,85,0.00,CLR,,0.57,WeatherDisplay:10.37,2013-11-22 00:31:00,
2013-11-21 18:36:00,29.1,25.2,30.33,North,7,13.0,28.0,85,0.00,CLR,,0.57,WeatherDisplay:10.37,2013-11-22 00:36:00,
2013-11-21 18:41:00,29.1,25.2,30.33,NNE,15,13.0,30.0,85,0.00,CLR,,0.57,WeatherDisplay:10.37,2013-11-22 00:41:00,
2013-11-21 18:51:00,29.0,25.1,30.34,North,2,24.0,34.0,85,0.00,CLR,,0.57,WeatherDisplay:10.37,2013-11-22 00:51:00,
2013-11-21 18:56:00,28.9,25.0,30.34,NNE,15,18.0,26.0,85,0.00,CLR,,0.57,WeatherDisplay:10.37,2013-11-22 00:56:00,
2013-11-21 19:01:00,28.9,24.7,30.34,North,6,23.0,29.0,84,0.00,CLR,,0.57,WeatherDisplay:10.37,2013-11-22 01:01:00,
2013-11-21 19:11:00,28.9,24.7,30.35,North,1,15.0,30.0,84,0.00,CLR,,0.57,WeatherDisplay:10.37,2013-11-22 01:11:00,
2013-11-21 19:21:00,28.9,24.7,30.35,North,10,8.0,35.0,84,0.00,CLR,,0.57,WeatherDisplay:10.37,2013-11-22 01:21:00,
2013-11-21 19:31:00,28.3,24.1,30.35,North,7,13.0,28.0,84,0.00,CLR,,0.57,WeatherDisplay:10.37,2013-11-22 01:31:00,
2013-11-21 19:41:00,28.0,23.5,30.36,NNE,16,16.0,21.0,83,0.00,CLR,,0.57,WeatherDisplay:10.37,2013-11-22 01:41:00,
2013-11-21 19:51:00,28.0,23.5,30.37,North,5,21.0,31.0,83,0.00,CLR,,0.57,WeatherDisplay:10.37,2013-11-22 01:51:00,
2013-11-21 19:56:00,27.9,23.4,30.37,North,9,15.0,28.0,83,0.00,CLR,,0.57,WeatherDisplay:10.37,2013-11-22 01:56:00,
2013-11-21 20:01:00,27.9,23.4,30.38,North,8,13.0,23.0,83,0.00,CLR,,0.57,WeatherDisplay:10.37,2013-11-22 02:01:00,
2013-11-21 20:26:00,27.7,22.6,30.41,NNE,20,20.0,24.0,81,0.00,RA,,0.57,WeatherDisplay:10.37,2013-11-22 02:26:00,
2013-11-21 20:31:00,27.7,22.6,30.42,NNE,12,12.0,25.0,81,0.00,CLR,,0.57,WeatherDisplay:10.37,2013-11-22 02:31:00,
2013-11-21 20:36:00,27.6,22.5,30.42,North,5,17.0,28.0,81,0.00,CLR,,0.57,WeatherDisplay:10.37,2013-11-22 02:36:00,
2013-11-21 20:41:00,27.4,22.0,30.42,North,11,21.0,30.0,80,0.00,CLR,,0.57,WeatherDisplay:10.37,2013-11-22 02:41:00,
2013-11-21 20:46:00,27.4,22.0,30.42,North,4,18.0,30.0,80,0.00,CLR,,0.57,WeatherDisplay:10.37,2013-11-22 02:46:00,
2013-11-21 20:51:00,27.3,21.9,30.42,North,1,20.0,30.0,80,0.00,CLR,,0.57,WeatherDisplay:10.37,2013-11-22 02:51:00,
2013-11-21 21:01:00,27.3,21.9,30.42,North,2,22.0,29.0,80,0.00,CLR,,0.57,WeatherDisplay:10.37,2013-11-22 03:01:00,
2013-11-21 21:06:00,27.2,21.8,30.43,North,359,22.0,30.0,80,0.00,CLR,,0.57,WeatherDisplay:10.37,2013-11-22 03:06:00,
2013-11-21 21:11:00,27.1,21.5,30.43,NNE,14,20.0,26.0,79,0.00,CLR,,0.57,WeatherDisplay:10.37,2013-11-22 03:11:00,
2013-11-21 21:16:00,27.1,21.5,30.44,North,8,14.0,28.0,79,0.00,CLR,,0.57,WeatherDisplay:10.37,2013-11-22 03:16:00,
2013-11-21 21:21:00,27.0,21.4,30.44,North,9,18.0,31.0,79,0.00,CLR,,0.57,WeatherDisplay:10.37,2013-11-22 03:21:00,
2013-11-21 21:31:00,27.0,21.4,30.45,North,7,10.0,23.0,79,0.00,CLR,,0.57,WeatherDisplay:10.37,2013-11-22 03:31:00,
2013-11-21 21:36:00,27.1,21.5,30.45,North,10,20.0,26.0,79,0.00,CLR,,0.57,WeatherDisplay:10.37,2013-11-22 03:36:00,
2013-11-21 21:41:00,27.1,21.5,30.46,NNE,14,15.0,24.0,79,0.00,CLR,,0.57,WeatherDisplay:10.37,2013-11-22 03:41:00,
2013-11-21 21:56:00,26.8,21.2,30.46,North,9,21.0,26.0,79,0.00,CLR,,0.57,WeatherDisplay:10.37,2013-11-22 03:56:00,
2013-11-21 22:01:00,26.7,21.1,30.47,NNE,18,24.0,36.0,79,0.00,CLR,,0.57,WeatherDisplay:10.37,2013-11-22 04:01:00,
2013-11-21 22:06:00,26.7,20.8,30.47,North,11,14.0,26.0,78,0.00,CLR,,0.57,WeatherDisplay:10.37,2013-11-22 04:06:00,
2013-11-21 22:11:00,26.7,20.8,30.47,North,8,13.0,24.0,78,0.00,CLR,,0.57,WeatherDisplay:10.37,2013-11-22 04:11:00,
2013-11-21 22:16:00,26.7,20.8,30.47,North,8,17.0,32.0,78,0.00,CLR,,0.57,WeatherDisplay:10.37,2013-11-22 04:16:00,
2013-11-21 22:21:00,26.8,20.9,30.47,North,2,16.0,23.0,78,0.00,CLR,,0.57,WeatherDisplay:10.37,2013-11-22 04:21:00,
2013-11-21 22:26:00,26.8,21.2,30.48,North,5,17.0,28.0,79,0.00,CLR,,0.57,WeatherDisplay:10.37,2013-11-22 04:26:00,
2013-11-21 22:31:00,26.7,20.8,30.48,NNE,19,25.0,31.0,78,0.00,,,0.57,WeatherDisplay:10.37,2013-11-22 04:31:00,
2013-11-21 22:36:00,26.7,20.8,30.48,North,11,14.0,23.0,78,0.00,CLR,,0.57,WeatherDisplay:10.37,2013-11-22 04:36:00,
2013-11-21 22:40:00,26.7,20.8,30.48,North,7,12.0,21.0,78,0.00,CLR,,0.57,WeatherDisplay:10.37,2013-11-22 04:40:00,
2013-11-21 22:46:00,26.7,20.5,30.49,North,4,23.0,30.0,77,0.00,CLR,,0.57,WeatherDisplay:10.37,2013-11-22 04:46:00,
2013-11-21 22:51:00,26.8,20.6,30.49,NNE,12,14.0,25.0,77,0.00,CLR,,0.57,WeatherDisplay:10.37,2013-11-22 04:51:00,
2013-11-21 23:01:00,26.8,20.6,30.48,North,0,22.0,31.0,77,0.00,CLR,,0.57,WeatherDisplay:10.37,2013-11-22 05:01:00,
2013-11-21 23:05:00,26.7,20.5,30.48,North,359,14.0,32.0,77,0.00,CLR,,0.57,WeatherDisplay:10.37,2013-11-22 05:05:00,
2013-11-21 23:11:00,26.5,20.3,30.48,NNE,13,10.0,35.0,77,0.00,CLR,,0.57,WeatherDisplay:10.37,2013-11-22 05:11:00,
2013-11-21 23:16:00,26.5,20.3,30.48,NNE,16,17.0,34.0,77,0.00,CLR,,0.57,WeatherDisplay:10.37,2013-11-22 05:16:00,
2013-11-21 23:25:00,26.5,20.3,30.49,North,4,18.0,31.0,77,0.00,CLR,,0.57,WeatherDisplay:10.37,2013-11-22 05:25:00,
2013-11-21 23:31:00,26.5,20.3,30.50,North,8,15.0,21.0,77,0.00,CLR,,0.57,WeatherDisplay:10.37,2013-11-22 05:31:00,
2013-11-21 23:36:00,26.5,20.0,30.50,North,3,17.0,28.0,76,0.00,CLR,,0.57,WeatherDisplay:10.37,2013-11-22 05:36:00,
2013-11-21 23:41:00,26.5,20.3,30.51,North,2,17.0,24.0,77,0.00,CLR,,0.57,WeatherDisplay:10.37,2013-11-22 05:41:00,
2013-11-21 23:46:00,26.7,20.5,30.52,North,358,13.0,22.0,77,0.00,CLR,,0.57,WeatherDisplay:10.37,2013-11-22 05:46:00,
2013-11-21 23:51:00,26.5,20.0,30.52,North,10,22.0,26.0,76,0.00,CLR,,0.57,WeatherDisplay:10.37,2013-11-22 05:51:00,